Погода в Опалихе

Россия / Нижегородская область     56°30′56″N   44°12′51″E
темп.,
°C
ветер,
м/с
пор.,
м/с
влажн.,
%
обл.,
%
осадки,
мм/ч
давл.,
гПа
погр.,
м
11 мая, вт
вт1100:00+6ссв4129538 0.0 1026377
03:00+6ссв412964 0.0 1027326
06:00+7св4119225 0.0 1027338
09:00+13св57714 0.0 1027544
12:00+19св45595 0.0 1027901
15:00+21всв455645 0.0 10271168
18:00+19всв366985 0.0 1027345
21:00+14св3892100 0.0 1028129
12 мая, ср
ср1200:00+13св389649 0.0 1028164
03:00+12всв389678 0.0 1028150
06:00+14всв38895 0.0 1028210
09:00+20всв576639 0.0 1027660
12:00+24в584953 0.0 10261761
15:00+24юв5843100 0.0 10252649
18:00+21юв595857 0.1 1025830
21:00+16юв3106897 0.1 1026346
13 мая, чт
чт1300:00+15юв297492 0.0 1025243
03:00+14в267726 0.0 1025139
06:00+15в287683 0.0 1025259
09:00+19вюв49576 0.0 1024724
12:00+23юв694573 0.0 10221266
15:00+18вюв61269100 0.0 1022833
18:00+17юв5147387 0.1 1021795
21:00+14вюв3119233 1.1 1020295
14 мая, пт
пт1400:00+13юв2796100 0.2 1019156
03:00+13ю23961 0.3 102053
06:00+15ю11915 0.0 102089
09:00+19юв2274100 0.0 1020577
12:00+22ю3361100 0.0 10201054
15:00+23ю345785 0.0 10191437
18:00+23ююв35654 0.0 1018362
21:00+17юв348858 0.0 101855
15 мая, сб
сб1500:00+16юв369292 0.0 1017113
03:00+15юв3590100 0.0 101686
06:00+17юв3781100 0.0 1016197
09:00+23ююв595184 0.0 1015538
12:00+25ю61340100 0.0 10141172
15:00+26ююв7154417 0.0 10131525
18:00+24ю612536 0.0 10121183
21:00+20ю515661 0.0 1012604